| time (UTC) | temp F | wind direction | speed knots | gust knots | rain 1hr in | rain 24hr in | rain mn in | humidity % | barometer mb |
| 20260508011002 | 57 | 105 | 2.6 | 3.5 | 0.06 | 0.35 | 0.35 | 90 | 1015.3 |
| 20260507230956 | 58 | 91 | 1.7 | 4.3 | 0.03 | 0.19 | 0.19 | 86 | 1015.5 |
| 20260507220953 | 57 | 337 | 0.9 | 2.6 | 0.02 | 0.16 | 0.16 | 87 | 1015.4 |
| 20260507210949 | 59 | 146 | 2.6 | 7.0 | 0.06 | 0.14 | 0.14 | 86 | 1015.5 |
| 20260507200945 | 60 | 203 | 0.9 | 2.6 | 0.00 | 0.08 | 0.08 | 84 | 1015.4 |
| 20260507190942 | 58 | 47 | 0.0 | 0.0 | 0.00 | 0.08 | 0.08 | 86 | 1015.2 |
| 20260507180938 | 61 | 65 | 1.7 | 4.3 | 0.00 | 0.08 | 0.08 | 77 | 1014.6 |
| 20260507160931 | 61 | 102 | 0.0 | 1.7 | 0.01 | 0.08 | 0.08 | 85 | 1014.6 |
| 20260507150928 | 62 | 155 | 1.7 | 3.5 | 0.02 | 0.07 | 0.07 | 85 | 1014.8 |
| 20260507140924 | 62 | 108 | 0.9 | 3.5 | 0.03 | 0.05 | 0.05 | 83 | 1015.1 |
| 20260507130921 | 64 | 138 | 3.5 | 5.2 | 0.01 | 0.02 | 0.02 | 77 | 1015.2 |
| 20260507120918 | 65 | 255 | 5.2 | 8.7 | 0.01 | 0.01 | 0.01 | 69 | 1014.6 |
| 20260507110914 | 69 | 255 | 4.3 | 9.6 | 0.00 | 0.00 | 0.00 | 58 | 1014.1 |
| 20260507100911 | 68 | 269 | 5.2 | 10.4 | 0.00 | 0.00 | 0.00 | 59 | 1014.2 |
| 20260507090909 | 70 | 174 | 7.0 | 11.3 | 0.00 | 0.00 | 0.00 | 53 | 1014.1 |
| 20260507080905 | 69 | 200 | 7.0 | 13.0 | 0.00 | 0.00 | 0.00 | 56 | 1013.3 |
| 20260507070900 | 68 | 139 | 4.3 | 10.4 | 0.00 | 0.00 | 0.00 | 57 | 1013.3 |
| 20260507060857 | 65 | 238 | 1.7 | 6.1 | 0.00 | 0.00 | 0.00 | 61 | 1013.1 |
| 20260507050853 | 63 | 352 | 0.9 | 3.5 | 0.00 | 0.00 | 0.00 | 65 | 1012.6 |
| 20260507040850 | 56 | 137 | 0.9 | 3.5 | 0.00 | 0.00 | 0.00 | 77 | 1013.1 |
| 20260507030846 | 55 | 149 | 0.0 | 0.0 | 0.00 | 0.00 | 0.00 | 78 | 1012.4 |
| 20260507020843 | 59 | 100 | 0.0 | 0.0 | 0.00 | 0.00 | 0.00 | 72 | 1012.3 |